Location: ???? ?????
(37.9132°N, 22.9869°E)
Time: 10:57:55
(UTC+00:00)

Cosmos 968 Rocket - Pass Details

Date: 04 August 2024
Orbit: 738 x 767 km, 74.0° (Epoch: 14 September)

Event Time Altitude Azimuth Distance (km) Brightness Sun altitude
Rises 20:48:28 0° 340° (NNW) 3,222 7.9 -29.8°
Reaches altitude 10° 20:50:51 10° 340° (NNW) 2,288 6.9 -30.0°
Enters shadow 20:54:54 56° 333° (NNW) 896 4.0 -30.4°
